Manchester, NH

6:11 AM EDT on March 24, 2017 (GMT -0400)
Manchester

Weather History for KMHT - July, 2012

Change the Weather History Date:

Wednesday, July 4, 2012

  Actual Average Record
Temperature  
Mean Temperature 76 °F 72 °F  
Max Temperature 88 °F 82 °F 97 °F (2002)
Min Temperature 64 °F 62 °F 41 °F (1962)
Degree Days  
Heating Degree Days 0 0  
Month to date heating degree days 0  
Since 1 June heating degree days 58  
Since 1 July heating degree days 0  
Cooling Degree Days 10 7  
Month to date cooling degree days 28  
Year to date cooling degree days 178  
Since 1 June cooling degree days 148  
Growing Degree Days 26 (Base 50)    
Moisture  
Dew Point 64 °F    
Average Humidity 71    
Maximum Humidity 94    
Minimum Humidity 44    
Precipitation  
Precipitation 0.18 in 0.11 in 0.81 in (1964)
Month to date precipitation 0.45  
Year to date precipitation 22.28  
Snow  
Snow 0.00 in - - ()
Month to date snowfall  
Since 1 July snowfall  
Snow Depth -    
Sea Level Pressure  
Sea Level Pressure 29.75 in    
Wind  
Wind Speed 3 mph (SW)    
Max Wind Speed 12 mph    
Max Gust Speed 33 mph    
Visibility 8 miles    
Events Rain , Thunderstorm    
T = Trace of Precipitation, MM = Missing Value Source: NWS Daily Summary

Daily Weather History Graph

Daily Weather History Graph

Search for Another Location

Airport or City:

Trip Planner

Search our weather history database for the weather conditions in past years. The results will help you decide how hot, cold, wet, or windy it might be!

Date:

Astronomy

Jul. 04, 2012 Rise Set
Actual Time 5:12 AM EDT 8:27 PM EDT
Civil Twilight 4:37 AM EDT 9:02 PM EDT
Nautical Twilight 3:52 AM EDT 9:47 PM EDT
Astronomical Twilight 2:57 AM EDT 10:42 PM EDT
Moon 9:01 PM EDT (7/4) 6:13 AM EDT (7/4)
Length of Visible Light 16h 24m
Length of Day
15h 14m
Full, 99% of the Moon is Illuminated
Jul 4
Full
Jul 10
Last Quarter
Jul 19
New
Jul 26
First Quarter
Aug 1
Full

Hourly Weather History & Observations

Time (EDT) Temp. Heat Index Dew Point Humidity Pressure Visibility Wind Dir Wind Speed Gust Speed Precip Events Conditions
12:53 AM 69.1 °F - 57.0 °F 65% 29.85 in 10.0 mi Calm Calm - N/A   Clear
1:53 AM 68.0 °F - 57.9 °F 70% 29.83 in 10.0 mi SE 3.5 mph - N/A   Partly Cloudy
2:53 AM 68.0 °F - 57.9 °F 70% 29.82 in 10.0 mi Calm Calm - N/A   Scattered Clouds
3:53 AM 66.2 °F - 60.8 °F 83% 29.79 in 10.0 mi Calm Calm - N/A   Overcast
4:53 AM 66.0 °F - 61.0 °F 84% 29.83 in 4.0 mi Calm Calm - 0.03 in Rain Rain
5:31 AM 64.4 °F - 62.6 °F 94% 29.80 in 2.0 mi Calm Calm - 0.10 in Rain Rain
5:53 AM 64.9 °F - 63.0 °F 93% 29.82 in 5.0 mi South 3.5 mph - 0.11 in Rain Light Rain
6:53 AM 66.0 °F - 64.0 °F 93% 29.82 in 7.0 mi SW 3.5 mph - 0.02 in   Overcast
7:17 AM 66.2 °F - 64.4 °F 94% 29.79 in 3.0 mi South 4.6 mph - N/A   Overcast
7:41 AM 66.2 °F - 64.4 °F 94% 29.79 in 2.0 mi SSW 5.8 mph - 0.00 in Rain Light Rain
7:53 AM 66.9 °F - 64.9 °F 93% 29.82 in 2.0 mi SSW 4.6 mph - 0.00 in   Overcast
8:53 AM 68.0 °F - 66.0 °F 93% 29.81 in 2.0 mi SSW 4.6 mph - 0.02 in Rain Light Rain
8:56 AM 68.0 °F - 66.2 °F 94% 29.78 in 7.0 mi SSW 4.6 mph - 0.00 in Rain Light Rain
9:53 AM 72.0 °F - 66.9 °F 84% 29.79 in 10.0 mi Variable 3.5 mph - 0.00 in   Overcast
10:25 AM 75.2 °F - 66.2 °F 73% 29.76 in 10.0 mi NW 3.5 mph - N/A   Mostly Cloudy
10:53 AM 75.9 °F - 66.9 °F 74% 29.78 in 10.0 mi Variable 3.5 mph - N/A   Mostly Cloudy
11:53 AM 80.1 °F 82.7 °F 68.0 °F 67% 29.75 in 10.0 mi Calm Calm - N/A   Scattered Clouds
12:53 PM 84.0 °F 85.8 °F 64.9 °F 53% 29.74 in 10.0 mi West 6.9 mph - N/A   Partly Cloudy
1:53 PM 82.9 °F 84.6 °F 64.9 °F 54% 29.74 in 10.0 mi WNW 6.9 mph - N/A   Mostly Cloudy
2:53 PM 87.1 °F 87.8 °F 63.0 °F 44% 29.73 in 10.0 mi West 8.1 mph - N/A   Mostly Cloudy
3:53 PM 87.1 °F 88.3 °F 64.0 °F 46% 29.71 in 10.0 mi Variable 6.9 mph - N/A   Scattered Clouds
4:53 PM 87.1 °F 88.9 °F 64.9 °F 48% 29.70 in 10.0 mi Variable 5.8 mph - N/A   Scattered Clouds
5:53 PM 87.1 °F 88.3 °F 64.0 °F 46% 29.69 in 10.0 mi West 5.8 mph - N/A   Scattered Clouds
6:53 PM 87.1 °F 88.9 °F 64.9 °F 48% 29.69 in 10.0 mi WSW 5.8 mph - N/A   Partly Cloudy
7:53 PM 84.9 °F 87.1 °F 66.0 °F 53% 29.68 in 10.0 mi SSW 4.6 mph - N/A   Scattered Clouds
8:01 PM 84.2 °F 86.6 °F 66.2 °F 55% 29.67 in 10.0 mi North 8.1 mph - N/A Thunderstorm Thunderstorm
8:20 PM 78.8 °F - 64.4 °F 61% 29.68 in 10.0 mi NNE 11.5 mph 33.4 mph N/A Thunderstorm Thunderstorm
8:53 PM 75.0 °F - 64.0 °F 69% 29.71 in 10.0 mi Calm Calm - N/A Thunderstorm Thunderstorm
9:11 PM 77.0 °F - 64.4 °F 65% 29.67 in 10.0 mi SE 6.9 mph - N/A   Mostly Cloudy
9:53 PM 75.2 °F - 64.4 °F 69% 29.69 in 10.0 mi WSW 4.6 mph - N/A   Scattered Clouds
10:53 PM 75.0 °F - 63.0 °F 66% 29.70 in 10.0 mi Calm Calm - N/A   Partly Cloudy
11:53 PM 71.1 °F - 64.9 °F 81% 29.71 in 10.0 mi NNE 9.2 mph - N/A   Clear